SIRIUS-3

Last updated on Mon Oct 24 2016 09:18:57 GMT+0000 (Coordinated Universal Time)

1 26626U 00077A 16297.53307112 -.00000077 00000-0 00000+0 0 9997 2 26626 62.4381 350.3094 0008892 277.2475 82.7121 1.58821748 58540
UTC large
Height (km)
Speed (km/s)
/
Latitude / Longitude
Inclination (degrees)
Orbital Period (minutes)
Azimuth
Elevation
Range (km)
Doppler Factor

Next 0 passes for location: London (51.5072 / 0.1276)

Sorry there are no passes over London.
SIRIUS-3